Regional Weather Roundup
Issued by NWS

Home | Current Version | Previous Version | Text Only | Print | Product List | Glossary On
Versions: 1 2 3 4 5 6 7 8 9 10 11 12 13 14 15 16 17 18 19 20 21 22 23 24 25 26 27 28 29 30 31 32 33 34 35 36 37 38 39 40 41 42 43 44 45 46 47 48 49 50
000
ASUS43 KDMX 191006
RWRIA

WEATHER ROUNDUP FOR IOWA
NATIONAL WEATHER SERVICE DES MOINES IA
400 AM CST MON FEB 19 2018

NOTE: "FAIR" INDICATES FEW OR NO CLOUDS BELOW 12,000 FEET WITH NO
SIGNIFICANT WEATHER AND/OR OBSTRUCTIONS TO VISIBILITY.

* - THESE STATIONS ARE NOT NWS STATIONS...THUS NOT UNDER NWS
QUALITY CONTROL.  THEY ALSO DO NOT REPORT WEATHER SUCH
AS PRECIPITATION OR FOG.

IAZ001>003-012>014-020>022-031>034-043>046-191100-
   NORTHWEST IOWA

CITY           SKY/WX    TMP DP  RH WIND       PRES   REMARKS
CARROLL *      MIX PCPN  32  30  93 N15       29.67S WCI  22
CHEROKEE *     LGT SNOW  24  23  95 N14       29.73F WCI  12
DENISON *      MIX PCPN  30  30 100 NE15G24   29.68R WCI  19
LE MARS *      CLOUDY    21  19  93 N24       29.77R FOG     WCI   4
ORANGE CITY *  MIX PCPN  21  19  93 N16G22    29.77R WCI   7
SHELDON *      CLOUDY    19  18  93 N29       29.75F WCI   1
SIOUX CITY     FRZ RAIN  23  21  92 N20       29.76S FOG     WCI   8
SPENCER        CLOUDY    23  19  85 N20       29.74F WCI   8
STORM LAKE *   LGT SNOW  25  23  93 N26G32    29.69S WCI   9
$$

IAZ055>058-069>071-079>083-090>094-191100-
   SOUTHWEST IOWA

CITY           SKY/WX    TMP DP  RH WIND       PRES   REMARKS
ATLANTIC *     CLOUDY    43  43 100 E7        29.61S FOG
AUDUBON *      DRIZZLE   36  32  87 N10G16    29.65R WCI  28
CLARINDA *       N/A     48  48 100 VRB5      29.62F FOG
COUNCIL BLFS * LGT RAIN  34  34 100 N14       29.62R WCI  24
CRESTON *      MIX PCPN  43  43 100 SE13      29.64F
HARLAN  *      LGT RAIN  37  37 100 N12       29.66R WCI  30
LAMONI         LGT RAIN  45  44  97 SE8       29.65F VSB 1
RED OAK *      CLOUDY    46  46 100 SE5       29.59F FOG
SHENANDOAH *   CLOUDY    48  48 100 SE13G18   29.58F FOG
$$

IAZ047>049-059>061-072>074-084-191100-
   CENTRAL IOWA

CITY           SKY/WX    TMP DP  RH WIND       PRES   REMARKS
AMES           CLOUDY    40  33  76 SE5       29.66F
ANKENY *       CLOUDY    43  37  81 S7        29.68S HAZE
BOONE *        CLOUDY    39  34  81 NW6       29.66R WCI  35
CHARITON *     CLOUDY    45  45 100 SE10      29.68S FOG
DES MOINES     DRIZZLE   44  39  82 S12       29.66F
GRINNELL*      CLOUDY    41  34  76 SE9       29.70F
KNOXVILLE *    CLOUDY    45  39  81 SE9       29.67F
MARSHALLTOWN   CLOUDY    36  32  85 SE9       29.67F WCI  29
NEWTON *       CLOUDY    41  36  81 S10       29.68F
PELLA *        CLOUDY    45  37  73 SE6       29.70F
PERRY *        DRIZZLE   37  36  97 N5        29.65F WCI  33
$$

IAZ004>006-015-016-023>025-035-036-191100-
   NORTH CENTRAL IOWA

CITY           SKY/WX    TMP DP  RH WIND       PRES   REMARKS
ALGONA *       CLOUDY    27 N/A N/A N20G26    29.72S WCI  13
CLARION *      CLOUDY    32  32 100 N13       29.70S WCI  22
ESTHERVILLE    CLOUDY    21  19  92 N23       29.74F WCI   5
FORT DODGE *   CLOUDY    29  26  89 N13       29.70S WCI  19
MASON CITY     CLOUDY    31  28  89 NW13      29.71S WCI  21
FOREST CITY *  CLOUDY    30  28  93 N13       29.72S WCI  20
WEBSTER CITY * CLOUDY    32  32 100 N14       29.67R WCI  22
IOWA FALLS *   CLOUDY    38  33  80 NE3       29.69S
$$

IAZ007>011-017>019-026>030-037>042-050>054-066-191100-
   NORTHEAST IOWA

CITY           SKY/WX    TMP DP  RH WIND       PRES   REMARKS
CEDAR RAPIDS   FAIR      38  32  79 SE7       29.72F WCI  33
CHARLES CITY * FAIR      34  34 100 E7        29.70S WCI  28
CLINTON *        N/A     37  34  89 MISG        N/A
DECORAH *      CLOUDY    37  30  75 S7        29.71S WCI  32
DUBUQUE        FAIR      35  30  82 S9        29.75S WCI  28
MONTICELLO *   FAIR      37  32  81 E6        29.73F WCI  33
OELWEIN *      FAIR      36  36 100 SE10      29.71F WCI  28
WATERLOO       MOCLDY    36  31  82 SE9       29.70F WCI  29
$$

IAZ064-065-067-068-078-191100-
   EAST CENTRAL IOWA

CITY           SKY/WX    TMP DP  RH WIND       PRES   REMARKS
DAVENPORT      FAIR      40  34  79 SE9       29.78F WCI  34
IOWA CITY      FAIR      37  30  75 SE5       29.76F WCI  33
MT. PLEASANT * RAIN      45  41  87 S13       29.77R
MUSCATINE *    FAIR      37  32  81 S7        29.79R WCI  32
QUAD CITIES    FAIR      39  35  86 E6        29.77F WCI  35
$$

IAZ062-063-075>077-085>089-095>099-191100-
   SOUTHEAST IOWA

CITY           SKY/WX    TMP DP  RH WIND       PRES   REMARKS
BURLINGTON     RAIN      45  42  89 S12       29.79R FOG
FAIRFIELD *    CLOUDY    46  41  81 S12       29.74R
FORT MADISON * LGT RAIN  45  45 100 S3        29.79S
KEOKUK *       LGT RAIN  45  43  93 E10       29.76F
OSKALOOSA *    CLOUDY    43  39  86 S12       29.72S
OTTUMWA        CLOUDY    46  41  82 S13       29.72S
WASHINGTON *   PTCLDY    39  39 100 S10       29.76R WCI  32
$$

ABBREVIATIONS USED IN REMARKS
   TC - TEMPERATURES IN CELSIUS
  WCI - WIND CHILL INDEX
   HX - HEAT INDEX
  VSB - VISIBILITY
$$





USA.gov is the U.S. government's official web portal to all federal, state and local government web resources and services.